"startDT [UTC]","vpos","CH4 [ppm]","stdev(CH4) [ppm]","CO2 [ppm]","stdev(CO2) [ppm]","H2O_reported [%]","stdev(H2O_reported)","CavityPressure [torr]","CavityTemp [C]","OutletValve","CH4_dry [ppm]","CO2_dry [ppm]","DasTemp [C]","EtalonTemp [C]","WarmBoxTemp [C]","MPVPosition","T_ECpre [C]","T_EC1 [C]","T_EC2 [C]","p_inlet [hPa]","p_in [hPa]","p_out [hPa]","T_inlet [C]","RH_inlet [%]","dwpt_inlet [C]","T_vent [C]","RH_vent [%]","dwpt_vent [C]","flow_vent [l min-1]","flow_inlet [l min-1]","dwpt_sample [C]","T_room [C]"
2015-08-04 00:00:00,0.0,1.95893,0.00045,382.860,0.052,1.1030,0.0019,139.998,45.000,34419.63333,1.98104,388.126,33.228,45.068,45.000,0.00,0.10,-272.73,-272.79,-7,1002,-6,24.1,28.9,4.9,23.8,29.8,5.1,5.73,1.86,3.4,27.9
2015-08-04 00:01:00,0.0,1.95875,0.00047,382.912,0.076,1.1065,0.0027,139.998,45.000,34416.18962,1.98080,388.191,33.237,45.068,45.000,0.00,0.10,-272.73,-272.79,-7,1002,-6,24.1,29.0,4.9,23.8,29.8,5.1,5.73,1.87,3.5,27.9
2015-08-04 00:02:00,0.0,1.95971,0.00053,382.872,0.051,1.1082,0.0017,139.999,45.000,34413.37711,1.98175,388.166,33.241,45.068,45.000,0.00,0.10,-272.73,-272.79,-8,1002,-6,24.0,29.1,4.9,23.8,29.9,5.1,5.73,1.89,3.5,28.0
2015-08-04 00:03:00,0.0,1.96059,0.00038,382.895,0.051,1.1108,0.0021,140.000,45.000,34415.20153,1.98282,388.192,33.246,45.068,45.000,0.00,0.10,-272.73,-272.80,-8,1002,-6,24.1,29.2,5.0,23.8,30.0,5.2,5.73,1.92,3.5,27.9
2015-08-04 00:04:00,0.0,1.96025,0.00044,382.847,0.051,1.1112,0.0015,140.001,45.000,34414.03458,1.98248,388.155,33.236,45.068,45.000,0.00,0.10,-272.73,-272.79,-7,1002,-6,24.1,29.1,5.0,23.8,30.0,5.2,5.73,1.94,3.5,27.9
2015-08-04 00:05:00,0.0,1.95981,0.00054,382.829,0.032,1.1106,0.0016,139.995,45.000,34412.84905,1.98197,388.130,33.220,45.068,45.000,0.00,0.10,-272.72,-272.79,-7,1002,-6,24.0,29.1,5.0,23.8,30.0,5.2,5.73,1.94,3.5,27.9
2015-08-04 00:06:00,0.0,1.95968,0.00041,382.891,0.053,1.1077,0.0023,140.001,45.000,34417.27136,1.98187,388.178,33.197,45.068,45.000,0.00,0.10,-272.73,-272.79,-7,1002,-6,24.1,29.1,5.0,23.8,29.9,5.1,5.73,1.91,3.5,27.9
2015-08-04 00:07:00,0.0,1.95962,0.00057,382.802,0.064,1.1108,0.0016,140.001,45.000,34417.41364,1.98179,388.103,33.195,45.068,45.000,0.00,0.10,-272.73,-272.80,-8,1002,-6,24.1,29.1,5.0,23.8,30.0,5.2,5.73,1.89,3.5,27.9
2015-08-04 00:08:00,0.0,1.95979,0.00050,382.791,0.047,1.1098,0.0014,139.998,45.000,34415.60317,1.98203,388.090,33.209,45.068,45.000,0.00,0.10,-272.72,-272.79,-8,1002,-6,24.0,29.1,5.0,23.8,30.0,5.2,5.73,1.86,3.4,27.9
2015-08-04 00:09:00,0.0,1.95949,0.00040,382.750,0.078,1.1072,0.0017,140.002,45.000,34416.01571,1.98159,388.029,33.241,45.068,45.000,0.00,0.10,-272.73,-272.79,-8,1001,-6,24.0,29.1,4.9,23.8,29.9,5.1,5.73,1.86,3.5,27.8
2015-08-04 00:10:00,0.0,1.95983,0.00039,382.743,0.067,1.1085,0.0016,140.000,45.000,34415.19797,1.98197,388.040,33.247,45.068,45.000,0.00,0.10,-272.73,-272.80,-7,1002,-6,24.0,29.1,5.0,23.8,29.9,5.2,5.73,1.89,3.4,27.9
2015-08-04 00:11:00,0.0,1.95921,0.00052,382.690,0.062,1.1106,0.0019,139.999,45.000,34416.80157,1.98145,387.987,33.248,45.068,45.000,0.00,0.10,-272.73,-272.79,-7,1002,-6,24.1,29.2,5.0,23.8,30.0,5.2,5.73,1.92,3.4,27.9
2015-08-04 00:12:00,0.0,1.95993,0.00044,382.665,0.046,1.1112,0.0021,140.001,45.000,34413.34994,1.98211,387.970,33.246,45.068,45.000,0.00,0.10,-272.73,-272.79,-8,1002,-6,24.0,29.2,5.0,23.8,30.0,5.2,5.73,1.95,3.5,27.9
2015-08-04 00:13:00,0.0,1.96028,0.00039,382.676,0.069,1.1111,0.0015,140.000,45.000,34412.54188,1.98248,387.972,33.244,45.068,45.000,0.00,0.10,-272.74,-272.80,-8,1002,-6,24.0,29.2,5.0,23.8,30.0,5.2,5.73,1.94,3.5,27.9
2015-08-04 00:14:00,0.0,1.96043,0.00038,382.661,0.075,1.1098,0.0030,140.000,45.000,34416.49522,1.98260,387.955,33.241,45.068,45.000,0.00,0.10,-272.73,-272.79,-8,1002,-6,24.1,29.2,5.0,23.8,30.0,5.2,5.73,1.93,3.4,27.9
2015-08-04 00:15:00,0.0,1.96097,0.00054,382.804,0.076,1.1116,0.0017,139.998,45.000,34413.45934,1.98318,388.108,33.207,45.068,45.000,0.00,0.10,-272.73,-272.78,-7,1001,-6,24.1,29.2,5.0,23.8,30.0,5.2,5.73,1.89,3.5,27.9
2015-08-04 00:16:00,0.0,1.96085,0.00028,382.790,0.062,1.1101,0.0019,139.995,45.000,34414.56272,1.98305,388.094,33.200,45.068,45.000,0.00,0.10,-272.74,-272.79,-7,1002,-6,24.1,29.1,5.0,23.8,30.0,5.2,5.73,1.87,3.4,27.9
2015-08-04 00:17:00,0.0,1.96052,0.00052,382.637,0.062,1.1098,0.0026,139.998,45.000,34413.55516,1.98279,387.928,33.211,45.068,45.000,0.00,0.10,-272.73,-272.79,-7,1002,-6,24.1,29.1,5.0,23.8,30.0,5.2,5.73,1.86,3.5,27.9
2015-08-04 00:18:00,0.0,1.96035,0.00034,382.694,0.081,1.1068,0.0024,139.998,45.000,34414.80992,1.98246,387.970,33.201,45.068,45.000,0.00,0.10,-272.72,-272.79,-8,1002,-6,24.1,29.1,4.9,23.8,29.9,5.1,5.73,1.87,3.5,27.9
2015-08-04 00:19:00,0.0,1.96089,0.00045,382.730,0.047,1.1097,0.0021,139.996,45.000,34415.97344,1.98302,388.029,33.193,45.068,45.000,0.00,0.10,-272.73,-272.80,-8,1001,-6,24.0,29.2,5.0,23.8,30.0,5.2,5.73,1.90,3.4,28.0
2015-08-04 00:20:00,0.0,1.96161,0.00046,382.613,0.038,1.1146,0.0015,140.000,45.000,34414.91170,1.98390,387.930,33.210,45.068,45.000,0.00,0.10,-272.73,-272.80,-8,1002,-6,24.0,29.3,5.0,23.8,30.1,5.2,5.73,1.93,3.4,28.0
2015-08-04 00:21:00,0.0,1.96140,0.00026,382.719,0.053,1.1132,0.0022,139.997,45.000,34414.72638,1.98366,388.029,33.200,45.068,45.000,0.00,0.10,-272.72,-272.79,-8,1001,-6,24.1,29.2,5.0,23.8,30.1,5.2,5.73,1.94,3.4,27.9
2015-08-04 00:22:00,0.0,1.96096,0.00040,382.629,0.080,1.1105,0.0023,140.000,45.000,34417.58749,1.98324,387.928,33.206,45.068,45.000,0.00,0.10,-272.73,-272.79,-7,1002,-6,24.0,29.2,5.0,23.8,30.0,5.2,5.73,1.93,3.4,27.9
2015-08-04 00:23:00,0.0,1.96028,0.00047,382.670,0.056,1.1063,0.0021,140.000,45.000,34417.85391,1.98242,387.948,33.218,45.068,45.000,0.00,0.10,-272.74,-272.80,-7,1002,-6,24.1,29.1,4.9,23.8,29.9,5.1,5.73,1.91,3.4,27.8
2015-08-04 00:24:00,0.0,1.96006,0.00038,382.672,0.046,1.1051,0.0023,139.999,45.000,34416.04518,1.98213,387.946,33.212,45.068,45.000,0.00,0.10,-272.73,-272.79,-8,1002,-6,24.0,29.0,4.9,23.8,29.8,5.1,5.73,1.88,3.4,27.9
2015-08-04 00:25:00,0.0,1.96101,0.00039,382.626,0.034,1.1057,0.0019,139.999,45.000,34413.23977,1.98310,387.898,33.222,45.068,45.000,0.00,0.10,-272.72,-272.79,-8,1002,-6,24.0,29.0,4.9,23.8,29.9,5.1,5.73,1.86,3.4,27.9
2015-08-04 00:26:00,0.0,1.96132,0.00045,382.625,0.041,1.1076,0.0018,139.999,45.000,34414.06598,1.98343,387.905,33.223,45.068,45.000,0.00,0.10,-272.73,-272.79,-7,1001,-6,24.0,29.1,4.9,23.8,29.9,5.1,5.73,1.87,3.4,27.9
2015-08-04 00:27:00,0.0,1.96081,0.00045,382.669,0.046,1.1097,0.0019,140.002,45.000,34415.69976,1.98306,387.966,33.215,45.068,45.000,0.00,0.10,-272.73,-272.80,-7,1002,-6,24.0,29.2,5.0,23.8,30.0,5.2,5.73,1.89,3.4,27.9
2015-08-04 00:28:00,0.0,1.96050,0.00040,382.656,0.031,1.1121,0.0017,139.999,45.000,34414.30150,1.98274,387.960,33.204,45.068,45.000,0.00,0.10,-272.73,-272.79,-7,1002,-6,24.0,29.2,5.0,23.8,30.0,5.2,5.73,1.92,3.4,27.8
2015-08-04 00:29:00,0.0,1.96091,0.00035,382.577,0.052,1.1108,0.0022,139.999,45.000,34414.58596,1.98312,387.879,33.193,45.068,45.000,0.00,0.10,-272.73,-272.79,-7,1002,-6,24.0,29.2,5.0,23.8,30.0,5.1,5.73,1.94,3.4,27.9
2015-08-04 00:30:00,0.0,1.96118,0.00059,382.597,0.039,1.1080,0.0021,140.001,45.000,34414.75107,1.98328,387.880,33.194,45.068,45.000,0.00,0.10,-272.73,-272.79,-8,1002,-6,24.0,29.1,5.0,23.8,29.9,5.1,5.73,1.94,3.4,27.8
2015-08-04 00:31:00,0.0,1.96141,0.00054,382.622,0.043,1.1089,0.0021,139.998,45.000,34412.96153,1.98364,387.910,33.192,45.068,45.000,0.00,0.10,-272.73,-272.79,-8,1001,-6,24.0,29.1,4.9,23.8,30.0,5.2,5.73,1.92,3.4,27.8
2015-08-04 00:32:00,0.0,1.96118,0.00063,382.570,0.046,1.1097,0.0014,140.000,45.000,34413.36897,1.98340,387.864,33.210,45.068,45.000,0.00,0.10,-272.73,-272.79,-8,1002,-6,24.0,29.2,4.9,23.8,30.0,5.1,5.73,1.89,3.4,27.8
2015-08-04 00:33:00,0.0,1.96143,0.00061,382.650,0.167,1.1075,0.0026,140.001,45.000,34411.99303,1.98357,387.933,33.201,45.068,45.000,0.00,0.10,-272.73,-272.79,-7,1002,-6,24.0,29.1,4.9,23.8,29.9,5.1,5.73,1.87,3.4,27.8
2015-08-04 00:34:00,0.0,1.96104,0.00032,382.473,0.078,1.1064,0.0017,140.003,45.000,34415.45436,1.98315,387.752,33.201,45.068,45.000,0.00,0.10,-272.73,-272.80,-7,1002,-6,24.0,29.1,4.9,23.8,29.9,5.1,5.73,1.86,3.4,27.8
2015-08-04 00:35:00,0.0,1.96118,0.00028,382.534,0.071,1.1097,0.0026,139.998,45.000,34413.41887,1.98334,387.821,33.207,45.068,45.000,0.00,0.10,-272.72,-272.79,-8,1001,-6,24.0,29.2,5.0,23.8,30.0,5.2,5.73,1.88,3.4,27.9
2015-08-04 00:36:00,0.0,1.96086,0.00039,382.424,0.092,1.1157,0.0022,140.001,45.000,34415.04068,1.98323,387.745,33.206,45.068,45.000,0.00,0.10,-272.73,-272.80,-8,1002,-6,24.0,29.4,5.1,23.8,30.1,5.2,5.73,1.91,3.4,27.9
2015-08-04 00:37:00,0.0,1.96044,0.00033,382.465,0.039,1.1182,0.0017,140.000,45.000,34415.51499,1.98280,387.800,33.222,45.068,45.000,0.00,0.10,-272.73,-272.80,-8,1001,-6,24.0,29.4,5.1,23.8,30.2,5.3,5.73,1.93,3.4,27.8
2015-08-04 00:38:00,0.0,1.96050,0.00050,382.479,0.095,1.1168,0.0016,139.999,45.000,34412.68884,1.98282,387.812,33.204,45.068,45.000,0.00,0.10,-272.73,-272.79,-7,1002,-6,24.0,29.4,5.1,23.8,30.2,5.3,5.73,1.94,3.4,27.8
2015-08-04 00:39:00,0.0,1.96102,0.00038,382.401,0.082,1.1196,0.0024,140.000,45.000,34413.41250,1.98341,387.732,33.199,45.068,45.000,0.00,0.10,-272.73,-272.79,-7,1001,-6,24.0,29.4,5.1,23.8,30.3,5.3,5.73,1.92,3.4,27.9
2015-08-04 00:40:00,0.0,1.96118,0.00032,382.391,0.059,1.1203,0.0016,140.000,45.000,34414.59704,1.98361,387.736,33.191,45.068,45.000,0.00,0.10,-272.73,-272.80,-7,1002,-6,24.0,29.5,5.1,23.8,30.3,5.3,5.73,1.91,3.4,27.8
2015-08-04 00:41:00,0.0,1.96143,0.00038,382.456,0.038,1.1211,0.0012,140.002,45.000,34411.94145,1.98382,387.801,33.193,45.068,45.000,0.00,0.10,-272.73,-272.79,-8,1002,-6,24.0,29.5,5.1,23.8,30.3,5.3,5.73,1.87,3.4,27.8
2015-08-04 00:42:00,0.0,1.96146,0.00047,382.400,0.056,1.1215,0.0012,139.999,45.000,34410.43133,1.98388,387.748,33.206,45.068,45.000,0.00,0.10,-272.73,-272.78,-8,1001,-6,24.0,29.5,5.1,23.8,30.3,5.3,5.73,1.86,3.4,27.8
2015-08-04 00:43:00,0.0,1.96134,0.00041,382.495,0.033,1.1193,0.0018,140.003,45.000,34413.19937,1.98379,387.834,33.191,45.068,45.000,0.00,0.10,-272.73,-272.79,-8,1001,-6,24.0,29.4,5.1,23.8,30.3,5.3,5.73,1.87,3.4,27.8
2015-08-04 00:44:00,0.0,1.96203,0.00034,382.506,0.041,1.1174,0.0016,140.001,45.000,34413.04496,1.98433,387.839,33.186,45.068,45.000,0.00,0.10,-272.73,-272.79,-7,1001,-6,24.0,29.4,5.1,23.8,30.2,5.3,5.73,1.89,3.4,27.8
2015-08-04 00:45:00,0.0,1.96171,0.00059,382.412,0.065,1.1122,0.0036,140.004,45.000,34414.18251,1.98395,387.715,33.195,45.068,45.000,0.00,0.10,-272.72,-272.79,-7,1002,-6,24.0,29.2,5.0,23.8,30.1,5.2,5.73,1.92,3.4,27.8
2015-08-04 00:46:00,0.0,1.96206,0.00045,382.488,0.049,1.1071,0.0017,140.000,45.000,34413.01292,1.98426,387.766,33.192,45.068,45.000,0.00,0.10,-272.73,-272.80,-7,1002,-6,24.0,29.1,4.9,23.8,29.9,5.1,5.73,1.94,3.4,27.8
2015-08-04 00:47:00,0.0,1.96163,0.00043,382.517,0.022,1.1085,0.0023,140.000,45.000,34414.47248,1.98381,387.802,33.199,45.068,45.000,0.00,0.10,-272.73,-272.80,-8,1002,-6,24.0,29.2,4.9,23.8,30.0,5.2,5.73,1.94,3.4,27.8
2015-08-04 00:48:00,0.0,1.96189,0.00044,382.404,0.066,1.1105,0.0022,139.996,45.000,34411.18187,1.98411,387.703,33.204,45.068,45.000,0.00,0.10,-272.73,-272.79,-8,1002,-6,24.0,29.2,5.0,23.8,30.0,5.2,5.73,1.92,3.4,27.9
2015-08-04 00:49:00,0.0,1.96210,0.00037,382.513,0.060,1.1093,0.0018,140.002,45.000,34413.73907,1.98430,387.797,33.223,45.068,45.000,0.00,0.10,-272.73,-272.79,-7,1002,-6,24.0,29.1,4.9,23.8,30.0,5.2,5.73,1.90,3.4,27.9
2015-08-04 00:50:00,0.0,1.96266,0.00037,382.421,0.046,1.1102,0.0018,140.002,45.000,34413.93010,1.98488,387.716,33.234,45.068,45.000,0.00,0.10,-272.73,-272.80,-7,1002,-6,24.0,29.2,5.0,23.8,30.0,5.2,5.73,1.87,3.4,27.9
2015-08-04 00:51:00,0.0,1.96302,0.00052,382.516,0.038,1.1104,0.0014,140.002,45.000,34411.53416,1.98521,387.813,33.235,45.068,45.000,0.00,0.10,-272.73,-272.80,-7,1001,-6,24.0,29.2,5.0,23.8,30.0,5.2,5.73,1.87,3.4,27.9
2015-08-04 00:52:00,0.0,1.96297,0.00042,382.511,0.045,1.1091,0.0028,139.998,45.000,34409.16063,1.98516,387.796,33.238,45.068,45.000,0.00,0.10,-272.72,-272.79,-8,1002,-6,24.0,29.2,5.0,23.8,30.0,5.2,5.73,1.87,3.4,27.9
2015-08-04 00:53:00,0.0,1.96318,0.00035,382.407,0.107,1.1111,0.0017,140.001,45.000,34410.25782,1.98544,387.710,33.242,45.068,45.000,0.00,0.10,-272.73,-272.79,-8,1001,-6,24.0,29.3,5.0,23.8,30.1,5.2,5.73,1.89,3.4,27.9
2015-08-04 00:54:00,0.0,1.96323,0.00040,382.450,0.066,1.1154,0.0024,139.998,45.000,34408.65729,1.98552,387.768,33.248,45.068,45.000,0.00,0.10,-272.74,-272.80,-8,1002,-6,24.0,29.4,5.1,23.8,30.2,5.3,5.73,1.93,3.4,27.9
2015-08-04 00:55:00,0.0,1.96348,0.00040,382.386,0.048,1.1182,0.0025,140.004,45.000,34411.90258,1.98593,387.717,33.248,45.068,45.000,0.00,0.10,-272.73,-272.79,-7,1001,-6,24.0,29.5,5.1,23.8,30.3,5.3,5.73,1.94,3.4,27.9
2015-08-04 00:56:00,0.0,1.96296,0.00038,382.431,0.052,1.1224,0.0020,139.999,45.000,34413.46239,1.98541,387.783,33.248,45.068,45.000,0.00,0.10,-272.73,-272.79,-7,1002,-6,24.0,29.5,5.1,23.8,30.4,5.3,5.73,1.94,3.4,27.9
2015-08-04 00:57:00,0.0,1.96361,0.00038,382.442,0.056,1.1233,0.0019,140.001,45.000,34413.87704,1.98612,387.798,33.250,45.068,45.000,0.00,0.10,-272.74,-272.80,-7,1001,-6,24.0,29.5,5.1,23.8,30.4,5.3,5.73,1.92,3.4,27.8
2015-08-04 00:58:00,0.0,1.96338,0.00030,382.487,0.042,1.1199,0.0025,139.998,45.000,34415.46526,1.98583,387.832,33.250,45.068,45.000,0.00,0.10,-272.73,-272.78,-7,1002,-6,24.0,29.5,5.1,23.8,30.3,5.3,5.73,1.89,3.4,27.8
2015-08-04 00:59:00,0.0,1.96323,0.00053,382.441,0.088,1.1172,0.0024,140.001,45.000,34414.33906,1.98560,387.766,33.242,45.068,45.000,0.00,0.10,-272.72,-272.78,-8,1001,-6,24.0,29.4,5.0,23.8,30.2,5.3,5.73,1.87,3.4,27.8
2015-08-04 01:00:00,0.0,1.96328,0.00048,382.553,0.036,1.1136,0.0017,139.999,45.000,34413.17937,1.98554,387.865,33.223,45.068,45.000,0.00,0.10,-272.74,-272.80,-8,1002,-6,24.0,29.3,5.0,23.8,30.1,5.2,5.73,1.86,3.4,27.9
2015-08-04 01:01:00,0.0,1.96390,0.00043,382.471,0.081,1.1122,0.0024,139.997,45.000,34413.53839,1.98620,387.779,33.222,45.068,45.000,0.00,0.10,-272.73,-272.80,-7,1001,-6,24.0,29.3,5.0,23.8,30.1,5.2,5.73,1.88,3.4,27.9
2015-08-04 01:02:00,0.0,1.96448,0.00032,382.382,0.040,1.1133,0.0025,139.999,45.000,34413.08520,1.98671,387.688,33.214,45.068,45.000,0.00,0.10,-272.72,-272.79,-7,1001,-6,24.0,29.3,5.0,23.8,30.1,5.2,5.73,1.91,3.4,27.9
2015-08-04 01:03:00,0.0,1.96479,0.00036,382.452,0.066,1.1150,0.0018,139.997,45.000,34410.20595,1.98716,387.766,33.194,45.068,45.000,0.00,0.10,-272.73,-272.80,-7,1002,-6,24.0,29.4,5.0,23.8,30.2,5.2,5.73,1.94,3.4,27.8
2015-08-04 01:04:00,0.0,1.96466,0.00034,382.445,0.048,1.1183,0.0025,140.001,45.000,34409.84741,1.98704,387.779,33.191,45.068,45.000,0.00,0.10,-272.73,-272.79,-8,1002,-6,24.0,29.5,5.1,23.8,30.3,5.3,5.73,1.94,3.4,27.8
2015-08-04 01:05:00,0.0,1.96490,0.00041,382.386,0.097,1.1220,0.0015,139.997,45.000,34407.36690,1.98742,387.737,33.196,45.068,45.000,0.00,0.10,-272.73,-272.79,-8,1002,-6,24.0,29.5,5.1,23.8,30.4,5.3,5.73,1.93,3.4,27.9
2015-08-04 01:06:00,0.0,1.96544,0.00071,382.429,0.093,1.1253,0.0020,140.004,45.000,34409.57832,1.98789,387.795,33.207,45.068,45.000,0.00,0.10,-272.73,-272.80,-7,1001,-6,24.0,29.6,5.2,23.8,30.5,5.4,5.73,1.91,3.4,27.9
2015-08-04 01:07:00,0.0,1.96589,0.00032,382.389,0.053,1.1259,0.0013,139.995,45.000,34407.89864,1.98854,387.761,33.202,45.068,45.000,0.00,0.10,-272.74,-272.79,-7,1001,-6,24.0,29.6,5.2,23.8,30.5,5.4,5.73,1.87,3.4,27.9
2015-08-04 01:08:00,0.0,1.96581,0.00030,382.324,0.050,1.1260,0.0019,140.001,45.000,34411.65089,1.98840,387.701,33.191,45.068,45.000,0.00,0.10,-272.73,-272.79,-7,1002,-6,24.0,29.7,5.2,23.8,30.5,5.4,5.73,1.86,3.4,27.8
2015-08-04 01:09:00,0.0,1.96655,0.00068,382.374,0.073,1.1268,0.0021,139.999,45.000,34410.37491,1.98912,387.747,33.188,45.068,45.000,0.00,0.10,-272.73,-272.78,-7,1002,-6,24.0,29.6,5.2,23.8,30.5,5.4,5.73,1.87,3.4,27.8
2015-08-04 01:10:00,0.0,1.96675,0.00061,382.347,0.056,1.1262,0.0022,140.001,45.000,34409.45381,1.98935,387.719,33.183,45.068,45.000,0.00,0.10,-272.73,-272.79,-8,1002,-6,24.0,29.6,5.2,23.8,30.5,5.4,5.73,1.89,3.4,27.9
2015-08-04 01:11:00,0.0,1.96684,0.00046,382.401,0.088,1.1253,0.0020,140.001,45.000,34411.53937,1.98940,387.768,33.177,45.068,45.000,0.00,0.10,-272.73,-272.80,-8,1001,-6,24.0,29.6,5.1,23.8,30.4,5.4,5.73,1.92,3.4,27.8
2015-08-04 01:12:00,0.0,1.96697,0.00038,382.265,0.037,1.1219,0.0021,140.004,45.000,34413.46096,1.98947,387.616,33.162,45.068,45.000,0.00,0.10,-272.72,-272.79,-7,1001,-6,24.0,29.5,5.1,23.8,30.3,5.3,5.73,1.94,3.4,27.8
2015-08-04 01:13:00,0.0,1.96760,0.00048,382.335,0.093,1.1200,0.0019,140.000,45.000,34411.64232,1.99004,387.673,33.149,45.068,45.000,0.00,0.10,-272.73,-272.80,-7,1001,-6,24.0,29.5,5.1,23.8,30.3,5.3,5.73,1.94,3.4,27.9
2015-08-04 01:14:00,0.0,1.96776,0.00035,382.316,0.057,1.1222,0.0013,140.001,45.000,34410.54366,1.99029,387.668,33.164,45.068,45.000,0.00,0.10,-272.73,-272.80,-7,1002,-6,24.0,29.5,5.1,23.8,30.4,5.3,5.73,1.92,3.4,27.9
2015-08-04 01:15:00,0.0,1.96806,0.00048,382.278,0.073,1.1248,0.0016,140.001,45.000,34409.82363,1.99065,387.639,33.147,45.068,45.000,0.00,0.10,-272.73,-272.79,-8,1002,-6,24.0,29.6,5.1,23.8,30.4,5.4,5.73,1.89,3.4,27.9
2015-08-04 01:16:00,0.0,1.96818,0.00038,382.354,0.036,1.1237,0.0027,139.997,45.000,34408.62479,1.99076,387.712,33.152,45.068,45.000,0.00,0.10,-272.73,-272.79,-8,1002,-6,24.0,29.6,5.1,23.8,30.4,5.4,5.73,1.87,3.4,27.8
2015-08-04 01:17:00,0.0,1.96842,0.00056,382.417,0.046,1.1229,0.0014,139.999,45.000,34410.64075,1.99095,387.773,33.143,45.068,45.000,0.00,0.10,-272.72,-272.80,-8,1002,-6,24.0,29.5,5.1,23.8,30.4,5.4,5.73,1.86,3.4,27.8
2015-08-04 01:18:00,0.0,1.96826,0.00035,382.331,0.082,1.1218,0.0018,139.998,45.000,34407.26504,1.99079,387.680,33.142,45.068,45.000,0.00,0.10,-272.73,-272.79,-7,1002,-6,24.0,29.5,5.1,23.8,30.4,5.3,5.73,1.88,3.4,27.8
2015-08-04 01:19:00,0.0,1.96830,0.00042,382.438,0.050,1.1204,0.0020,140.000,45.000,34409.13838,1.99081,387.778,33.127,45.068,45.000,0.00,0.10,-272.72,-272.79,-7,1002,-6,24.0,29.4,5.1,23.8,30.3,5.3,5.73,1.91,3.4,27.9
2015-08-04 01:20:00,0.0,1.96875,0.00037,382.421,0.059,1.1182,0.0017,139.997,45.000,34408.81812,1.99116,387.758,33.127,45.068,45.000,0.00,0.10,-272.73,-272.79,-7,1002,-6,24.0,29.4,5.1,23.8,30.3,5.3,5.73,1.93,3.4,27.9
2015-08-04 01:21:00,0.0,1.96911,0.00040,382.355,0.056,1.1200,0.0014,140.003,45.000,34409.22483,1.99161,387.698,33.126,45.068,45.000,0.00,0.10,-272.73,-272.79,-8,1002,-6,24.0,29.5,5.1,23.8,30.3,5.3,5.73,1.94,3.4,27.8
2015-08-04 01:22:00,0.0,1.96865,0.00048,382.361,0.051,1.1202,0.0024,140.004,45.000,34411.60220,1.99118,387.700,33.128,45.068,45.000,0.00,0.10,-272.73,-272.79,-8,1002,-6,24.0,29.5,5.1,23.8,30.3,5.3,5.73,1.93,3.4,27.9
2015-08-04 01:23:00,0.0,1.96898,0.00046,382.354,0.053,1.1189,0.0021,140.001,45.000,34410.73177,1.99144,387.691,33.131,45.068,45.000,0.00,0.10,-272.73,-272.79,-7,1001,-6,24.0,29.4,5.1,23.8,30.3,5.3,5.73,1.90,3.4,27.9
2015-08-04 01:24:00,0.0,1.96920,0.00034,382.356,0.061,1.1165,0.0018,140.001,45.000,34411.59994,1.99161,387.679,33.127,45.068,45.000,0.00,0.10,-272.74,-272.79,-7,1002,-6,24.0,29.4,5.1,23.8,30.3,5.3,5.73,1.88,3.4,27.9
2015-08-04 01:25:00,0.0,1.96963,0.00042,382.369,0.038,1.1205,0.0022,140.002,45.000,34412.71081,1.99219,387.713,33.136,45.068,45.000,0.00,0.10,-272.73,-272.79,-7,1002,-6,24.0,29.5,5.1,23.8,30.3,5.3,5.73,1.86,3.4,27.9
2015-08-04 01:26:00,0.0,1.96910,0.00031,382.235,0.045,1.1189,0.0021,139.998,45.000,34413.45296,1.99156,387.573,33.150,45.068,45.000,0.00,0.10,-272.72,-272.79,-7,1002,-6,24.0,29.4,5.1,23.8,30.3,5.3,5.73,1.87,3.4,27.9
2015-08-04 01:27:00,0.0,1.96996,0.00060,382.221,0.060,1.1180,0.0023,139.999,45.000,34410.59607,1.99234,387.548,33.165,45.068,45.000,0.00,0.10,-272.73,-272.80,-8,1001,-6,24.0,29.4,5.1,23.8,30.3,5.3,5.73,1.89,3.4,27.9
2015-08-04 01:28:00,0.0,1.97017,0.00058,382.368,0.025,1.1195,0.0019,140.001,45.000,34409.90937,1.99274,387.704,33.155,45.068,45.000,0.00,0.10,-272.73,-272.80,-8,1002,-6,24.0,29.5,5.1,23.8,30.3,5.3,5.73,1.92,3.4,27.9
2015-08-04 01:29:00,0.0,1.96924,0.00044,382.248,0.062,1.1228,0.0023,140.000,45.000,34412.27530,1.99184,387.605,33.171,45.068,45.000,0.00,0.10,-272.72,-272.79,-7,1001,-6,24.0,29.5,5.1,23.8,30.4,5.3,5.73,1.94,3.4,27.9
2015-08-04 01:30:00,0.0,1.96982,0.00067,382.157,0.088,1.1248,0.0022,139.998,45.000,34409.87590,1.99236,387.520,33.175,45.068,45.000,0.00,0.10,-272.73,-272.80,-7,1002,-6,24.0,29.6,5.2,23.8,30.4,5.4,5.73,1.94,3.4,27.9
2015-08-04 01:31:00,0.0,1.97018,0.00062,382.129,0.052,1.1259,0.0020,139.998,45.000,34409.05749,1.99281,387.494,33.170,45.068,45.000,0.00,0.10,-272.74,-272.80,-7,1002,-6,24.0,29.6,5.2,23.8,30.5,5.4,5.73,1.92,3.4,27.9
2015-08-04 01:32:00,0.0,1.96974,0.00037,382.017,0.082,1.1292,0.0023,139.997,45.000,34410.29975,1.99244,387.400,33.163,45.068,45.000,0.00,0.10,-272.73,-272.79,-8,1002,-6,24.0,29.8,5.2,23.8,30.6,5.4,5.73,1.89,3.4,27.9
2015-08-04 01:33:00,0.0,1.96926,0.00048,382.226,0.048,1.1332,0.0015,140.004,45.000,34414.88942,1.99208,387.628,33.166,45.068,45.000,0.00,0.10,-272.73,-272.80,-8,1002,-6,24.0,29.9,5.3,23.8,30.7,5.5,5.73,1.86,3.4,27.9
2015-08-04 01:34:00,0.0,1.96905,0.00058,382.176,0.063,1.1360,0.0023,139.997,45.000,34411.69560,1.99192,387.588,33.162,45.068,45.000,0.00,0.10,-272.74,-272.80,-8,1001,-6,24.0,30.0,5.3,23.8,30.8,5.5,5.73,1.86,3.4,27.8
2015-08-04 01:35:00,0.0,1.96919,0.00076,382.224,0.087,1.1364,0.0022,139.999,45.000,34412.76841,1.99197,387.650,33.154,45.068,45.000,0.00,0.10,-272.73,-272.79,-7,1001,-6,24.0,29.9,5.3,23.8,30.8,5.6,5.73,1.88,3.4,27.9
2015-08-04 01:36:00,0.0,1.97002,0.00038,382.092,0.093,1.1329,0.0033,140.000,45.000,34411.43807,1.99281,387.489,33.138,45.068,45.000,0.00,0.10,-272.72,-272.79,-7,1001,-6,24.0,29.8,5.2,23.8,30.7,5.5,5.73,1.90,3.4,27.9
2015-08-04 01:37:00,0.0,1.96988,0.00046,382.244,0.034,1.1296,0.0023,139.998,45.000,34410.53992,1.99257,387.630,33.131,45.068,45.000,0.00,0.10,-272.74,-272.80,-7,1002,-6,24.0,29.7,5.2,23.8,30.6,5.4,5.73,1.93,3.4,27.8
2015-08-04 01:38:00,0.0,1.96949,0.00069,382.248,0.054,1.1278,0.0013,139.999,45.000,34412.42005,1.99224,387.629,33.149,45.068,45.000,0.00,0.10,-272.74,-272.80,-8,1002,-6,24.0,29.7,5.2,23.7,30.6,5.4,5.73,1.94,3.4,27.9
2015-08-04 01:39:00,0.0,1.96841,0.00033,382.252,0.094,1.1265,0.0019,139.996,45.000,34409.31362,1.99110,387.619,33.161,45.068,45.000,0.00,0.10,-272.72,-272.78,-8,1001,-6,24.0,29.7,5.2,23.8,30.5,5.4,5.73,1.93,3.4,27.9
2015-08-04 01:40:00,0.0,1.96863,0.00056,382.331,0.046,1.1233,0.0023,139.999,45.000,34408.35874,1.99113,387.688,33.140,45.068,45.000,0.00,0.10,-272.73,-272.79,-8,1001,-6,24.0,29.6,5.1,23.8,30.5,5.4,5.73,1.91,3.4,27.9
2015-08-04 01:41:00,0.0,1.96885,0.00052,382.226,0.063,1.1248,0.0018,140.003,45.000,34411.60135,1.99146,387.586,33.138,45.068,45.000,0.00,0.10,-272.73,-272.79,-7,1001,-6,24.0,29.6,5.2,23.8,30.5,5.4,5.73,1.89,3.4,27.9
2015-08-04 01:42:00,0.0,1.96895,0.00027,382.274,0.102,1.1240,0.0019,139.999,45.000,34410.31003,1.99154,387.643,33.170,45.068,45.000,0.00,0.10,-272.72,-272.79,-7,1001,-6,24.0,29.6,5.1,23.8,30.5,5.4,5.73,1.86,3.4,27.9
2015-08-04 01:43:00,0.0,1.96902,0.00050,382.200,0.174,1.1259,0.0019,140.003,45.000,34411.29383,1.99161,387.561,33.151,45.068,45.000,0.00,0.10,-272.73,-272.80,-7,1001,-6,24.0,29.7,5.2,23.8,30.5,5.4,5.73,1.86,3.4,27.8
2015-08-04 01:44:00,0.0,1.96960,0.00059,382.320,0.070,1.1264,0.0023,140.004,45.000,34411.04246,1.99221,387.689,33.151,45.068,45.000,0.00,0.10,-272.73,-272.80,-8,1002,-6,24.0,29.7,5.2,23.8,30.6,5.4,5.73,1.88,3.4,27.8
2015-08-04 01:45:00,0.0,1.97002,0.00042,382.348,0.028,1.1288,0.0017,140.000,45.000,34409.84366,1.99273,387.732,33.139,45.068,45.000,0.00,0.10,-272.73,-272.79,-8,1001,-6,24.0,29.7,5.2,23.8,30.6,5.4,5.73,1.92,3.4,27.9
2015-08-04 01:46:00,0.0,1.97050,0.00049,382.301,0.028,1.1290,0.0016,140.000,45.000,34410.19687,1.99311,387.689,33.179,45.068,45.000,0.00,0.10,-272.73,-272.79,-8,1001,-6,24.0,29.7,5.2,23.8,30.6,5.5,5.73,1.93,3.4,27.9
2015-08-04 01:47:00,0.0,1.97155,0.00044,382.194,0.113,1.1281,0.0019,140.002,45.000,34408.29712,1.99426,387.575,33.188,45.068,45.000,0.00,0.10,-272.73,-272.80,-7,1002,-6,24.0,29.7,5.2,23.8,30.6,5.4,5.73,1.94,3.4,27.9